Home   Weather   Ivalo   Past weeks

Flag for Finland Past Weather in Ivalo, Finland — Yesterday and Last 2 Weeks

Now
43 °F

Overcast.


Feels Like: 39 °F
Forecast: 42 / 54 °F
Wind: 7 mph from Southwest

Location: Ivalo

Current Time: Sep 25, 2016 at 5:08:48 AM

Latest Report: Sep 25, 2016 at 4:20 AM


Visibility: N/A

Pressure: 29.89 "Hg

Humidity: 93%

Dew Point: 41 °F

Location of IvaloLocation

Past Weather in Ivalo — Graph

°F

Ivalo Temperature Yesterday

Maximum temperature yesterday: 46 °F (at 2:20 PM)
Minimum temperature yesterday: 43 °F (at 6:50 AM)
Average temperature yesterday: 44 °F

High & Low Weather Summary for the Past Weeks

 TemperatureHumidityPressure
High61 °F (Sep 14, 3:20 PM)100% (Sep 10, 3:20 AM)30.30 "Hg (Sep 10, 3:20 AM)
Low28 °F (Sep 17, 5:50 AM)54% (Sep 16, 4:20 PM)29.45 "Hg (Sep 12, 4:50 AM)
Average47 °F87%30.07 "Hg
* Reported Sep 10 3:20 AM — Sep 25 3:50 AM, Ivalo, Weather by CustomWeather, © 2016

Note: Actual official high and low records may vary slightly from our data, if they occured in-between our weather recording intervals... More about our weather records

Advertising

Ivalo Weather History for the Previous 24 Hours

Scroll right to see more
 ConditionsComfort  
Time TempWeatherWind HumidityBarometerVisibility
3:50 AM
Sun, Sep 25
43 °FOvercast.7 mph93%29.89 "HgN/A
3:20 AM43 °FOvercast.7 mph93%29.89 "HgN/A
2:50 AM43 °FOvercast.6 mph93%29.89 "HgN/A
2:20 AM43 °FOvercast.5 mph100%29.89 "HgN/A
1:50 AM43 °FMostly cloudy.7 mph100%29.89 "HgN/A
1:20 AM43 °FOvercast.5 mph100%29.89 "HgN/A
12:50 AM43 °FMostly cloudy.6 mph100%29.89 "HgN/A
12:20 AM43 °FOvercast.3 mph100%29.89 "HgN/A
11:50 PM
Sat, Sep 24
43 °FOvercast.1 mph100%29.89 "HgN/A
11:20 PM43 °FLow clouds.No wind100%29.89 "HgN/A
10:50 PM43 °FMostly cloudy.No wind100%29.89 "HgN/A
10:20 PM43 °FPassing clouds.No wind100%29.89 "HgN/A
9:50 PM43 °FLow clouds.2 mph100%29.89 "HgN/A
9:20 PM43 °FMostly cloudy.No wind100%29.89 "Hg5 mi
8:50 PM45 °FOvercast.No wind93%29.89 "Hg4 mi
8:20 PM43 °FClear.No wind100%29.89 "Hg10 mi
7:50 PM45 °FClear.No wind93%29.89 "Hg10 mi
7:20 PM45 °FClear.No wind100%29.89 "Hg10 mi
6:50 PM45 °FLight rain. Overcast.No wind93%29.89 "HgN/A
6:20 PM45 °FLight rain. Overcast.No wind93%29.89 "HgN/A
5:50 PM46 °FMore clouds than sun.No wind87%29.89 "HgN/A
5:20 PM46 °FMostly cloudy.No wind87%29.89 "HgN/A
4:50 PM46 °FLow clouds.No wind87%29.89 "HgN/A
4:20 PM46 °FOvercast.No wind87%29.89 "HgN/A
3:50 PM46 °FMostly cloudy.No wind87%29.89 "HgN/A
3:20 PM46 °FMostly cloudy.No wind87%29.89 "HgN/A
2:50 PM46 °FMostly cloudy.No wind87%29.89 "HgN/A
2:20 PM46 °FLow clouds.No wind87%29.89 "HgN/A
1:50 PM45 °FLight rain. Low clouds.No wind93%29.89 "HgN/A
1:20 PM45 °FDrizzle. Low clouds.No wind93%29.92 "Hg5 mi
12:50 PM45 °FLight rain. Low clouds.2 mph100%29.92 "Hg6 mi
12:20 PM45 °FLight rain. Low clouds.3 mph93%29.92 "HgN/A
11:20 AM45 °FLight rain. Low clouds.3 mph93%29.92 "HgN/A
10:50 AM45 °FLight rain. Low clouds.3 mph93%29.92 "HgN/A
10:20 AM45 °FLow clouds.5 mph93%29.92 "HgN/A
9:50 AM45 °FLow clouds.5 mph93%29.92 "HgN/A
9:20 AM43 °FFog.5 mph100%29.92 "Hg2 mi
8:50 AM43 °FOvercast.3 mph100%29.95 "HgN/A
8:20 AM45 °FOvercast.5 mph87%29.95 "HgN/A
7:50 AM45 °FMostly cloudy.6 mph87%29.95 "HgN/A
7:20 AM43 °FOvercast.3 mph93%29.95 "HgN/A
6:50 AM43 °FOvercast.3 mph93%29.95 "HgN/A
6:20 AM45 °FOvercast.3 mph87%29.98 "HgN/A
5:50 AM45 °FOvercast.2 mph87%29.98 "HgN/A
5:20 AM45 °FOvercast.3 mph87%29.98 "HgN/A
Weather by CustomWeather, © 2016

See weather overviewHow to use our weather pages